Volver al catálogo

FENGYUN 1C DEB

ActivoSSO
NORAD 33623·DEBRIS·🇨🇳 China

Lanzado May 10, 1999 desde Taiyuan Satellite Launch Center

Loading…

Próximos Pases (próximas 24 horas)

TLE

ActualizadoSource: Space-Track

Época: Sep 13, 2026, 12:58 UTC

1 33623U 99025DDG 26256.54058252  .00007711  00000-0  22010-2 0  9997
2 33623  98.1995   7.3016 0052353 166.7391 193.5191 14.44609382652865

Sigue FENGYUN 1C DEB en tiempo real con AllMySat

Download on the App Store